Location: Borojevi?i
(45.0486°N, 16.2297°E)
Time: 00:02:27
(UTC+00:00)

Cosmos 405 Rocket - Pass Details

Date: 08 August 2020
Orbit: 490 x 553 km, 81.3° (Epoch: 23 September)

Event Time Altitude Azimuth Distance (km) Brightness Sun altitude
Exits shadow 20:48:58 77° 274° (W) 511 2.6 -22.2°
Maximum altitude 20:49:00 77° 281° (W) 511 2.6 -22.2°
Drops below altitude 10° 20:52:44 10° 8° (N) 1,705 6.0 -22.6°
Sets 20:54:52 0° 10° (N) 2,601 7.0 -22.8°
